Date String (YYYY-MM-DD hh:mm:ss) UTC,Instrument flags,Ambient pressure (hPa),Sample flow (lpm),Bypass flow (lpm),Sample temperature (°C),Ambient temperature (°C),ASC tube jacket temperature (°C),LED temperature (°C),Box temperature (°C),Sample RH (%),Span deviation,Mass concentration (μg/m³),Mass concentration (μg/m³),Mass concentration (μg/m³)
DateTimeUTC,F1_M11,P_M11,Q1_M11,Q2_M11,T1_M11,T2_M11,T3_M11,T4_M11,T5_M11,U1_M11,ZSPAN_M11,X0_M11,X2_M11,X1_M11
2021-09-10 16:00:00,,0830.5,5.01,0.00,29.6,27.9,00.0,38.7,31.3,18.5,-000.4,0039.30,0020.48,0018.47
2021-09-10 16:01:00,,0830.5,4.99,0.00,29.6,28.1,00.0,38.7,31.4,18.8,-000.1,0037.04,0020.46,0018.50
2021-09-10 16:02:00,,0830.5,5.01,0.00,29.7,28.4,00.0,38.7,31.5,18.9,0000.1,0037.47,0020.48,0018.51
2021-09-10 16:03:00,,0830.5,4.99,0.00,29.7,28.6,00.0,38.7,31.5,19.3,0000.3,0037.36,0020.51,0018.51
2021-09-10 16:04:00,,0830.5,4.99,0.00,29.8,28.7,00.0,38.7,31.6,19.1,0000.3,0038.64,0020.49,0018.48
2021-09-10 16:05:00,,0830.5,5.00,0.00,29.8,28.9,00.0,38.7,31.7,19.5,0000.3,0040.08,0020.43,0018.45
2021-09-10 16:06:00,,0830.5,5.01,0.00,29.8,28.7,00.0,38.8,31.7,19.1,0000.0,0039.93,0020.43,0018.44
2021-09-10 16:07:00,,0830.5,5.00,0.00,29.8,27.1,00.0,38.8,31.2,18.7,0000.1,0040.40,0020.40,0018.42
2021-09-10 16:08:00,,0830.5,4.99,0.00,29.6,26.4,00.0,38.7,31.0,18.9,0000.1,0040.55,0020.35,0018.40
2021-09-10 16:09:00,,0830.6,5.01,0.00,29.6,26.8,00.0,38.7,31.1,17.6,0000.4,0040.14,0020.28,0018.39
2021-09-10 16:10:00,,0830.5,5.00,0.00,29.6,27.2,00.0,38.7,31.2,18.7,0000.7,0038.94,0020.16,0018.37
2021-09-10 16:11:00,,0830.5,5.01,0.00,29.6,27.6,00.0,38.7,31.3,18.9,0000.9,0038.14,0020.11,0018.37
2021-09-10 16:12:00,,0830.5,4.99,0.00,29.6,28.0,00.0,38.7,31.3,19.2,0001.3,0038.13,0020.09,0018.34
2021-09-10 16:13:00,,0830.5,5.02,0.00,29.6,28.3,00.0,38.7,31.4,19.2,0001.7,0037.88,0020.11,0018.34
2021-09-10 16:14:00,,0830.5,5.00,0.00,29.7,28.5,00.0,38.7,31.5,18.4,0002.0,0037.46,0020.13,0018.34
2021-09-10 16:15:00,,0830.5,4.99,0.00,29.7,28.7,00.0,38.7,31.6,17.5,0002.0,0035.47,0020.07,0018.30
2021-09-10 16:16:00,,0830.6,5.00,0.00,29.8,28.0,00.0,38.7,31.4,17.8,0002.3,0035.07,0020.05,0018.29
2021-09-10 16:17:00,,0830.5,5.02,0.00,29.6,26.5,00.0,38.7,31.0,17.4,0002.3,0036.31,0020.02,0018.26
2021-09-10 16:18:00,,0830.5,4.99,0.00,29.5,26.5,00.0,38.7,31.0,17.4,0002.2,0037.88,0020.01,0018.20
2021-09-10 16:19:00,,0830.5,5.00,0.00,29.5,26.9,00.0,38.7,31.1,17.2,0002.1,0037.93,0020.00,0018.16
2021-09-10 16:20:00,,0830.5,5.00,0.00,29.5,27.3,00.0,38.6,31.1,17.7,0001.7,0037.54,0019.94,0018.11
2021-09-10 16:21:00,,0830.5,5.01,0.00,29.5,27.7,00.0,38.6,31.2,17.1,0001.3,0037.51,0020.03,0018.09
2021-09-10 16:22:00,,0830.5,5.00,0.00,29.5,28.0,00.0,38.6,31.3,16.6,0001.0,0039.50,0020.15,0018.04
2021-09-10 16:23:00,,0830.6,5.00,0.00,29.6,28.3,00.0,38.6,31.4,16.2,0000.4,0040.51,0020.22,0018.00
2021-09-10 16:24:00,,0830.5,5.00,0.00,29.7,28.5,00.0,38.6,31.5,15.7,0000.2,0040.33,0020.21,0017.96
2021-09-10 16:25:00,,0830.6,4.99,0.00,29.7,28.0,00.0,38.6,31.3,15.6,0000.2,0040.40,0020.15,0017.90
2021-09-10 16:26:00,,0830.5,5.01,0.00,29.5,26.4,00.0,38.6,30.9,16.0,0000.3,0042.60,0020.17,0017.88
2021-09-10 16:27:00,,0830.5,4.99,0.00,29.4,26.3,00.0,38.6,30.8,15.1,0000.3,0043.47,0020.14,0017.82
2021-09-10 16:28:00,,0830.5,5.00,0.00,29.4,26.8,00.0,38.6,30.9,15.8,-000.1,0042.71,0020.10,0017.78
2021-09-10 16:29:00,,0830.5,4.98,0.00,29.4,27.2,00.0,38.5,31.0,15.9,-000.2,0041.09,0020.05,0017.75
2021-09-10 16:30:00,,0830.5,5.01,0.00,29.4,27.6,00.0,38.5,31.1,15.9,-000.4,0040.21,0020.04,0017.72
2021-09-10 16:31:00,,0830.5,5.00,0.00,29.5,27.9,00.0,38.5,31.2,16.5,-000.4,0039.93,0020.03,0017.68
2021-09-10 16:32:00,,0830.5,5.00,0.00,29.5,28.2,00.0,38.5,31.3,16.5,-000.6,0039.67,0019.95,0017.67
2021-09-10 16:33:00,,0830.5,5.00,0.00,29.6,28.5,00.0,38.6,31.4,16.3,-000.7,0038.01,0019.81,0017.66
2021-09-10 16:34:00,,0830.5,5.02,0.00,29.6,28.0,00.0,38.6,31.3,16.4,-000.4,0037.46,0019.80,0017.64
2021-09-10 16:35:00,,0830.4,4.99,0.00,29.5,26.4,00.0,38.6,30.9,16.3,-000.2,0037.02,0019.77,0017.60
2021-09-10 16:36:00,,0830.5,5.00,0.00,29.4,26.2,00.0,38.5,30.8,16.7,-000.4,0037.51,0019.74,0017.56
2021-09-10 16:37:00,,0830.5,5.00,0.00,29.3,26.6,00.0,38.5,30.9,17.8,-000.3,0035.82,0019.70,0017.54
2021-09-10 16:38:00,,0830.4,4.99,0.00,29.3,27.1,00.0,38.5,31.0,18.0,-000.5,0034.42,0019.80,0017.54
2021-09-10 16:39:00,,0830.4,5.01,0.00,29.4,27.5,00.0,38.5,31.1,18.3,-000.5,0033.74,0019.80,0017.51
2021-09-10 16:40:00,,0830.4,5.00,0.00,29.4,27.9,00.0,38.5,31.2,17.3,-000.5,0034.67,0019.80,0017.49
2021-09-10 16:41:00,,0830.4,5.00,0.00,29.5,28.2,00.0,38.5,31.3,17.7,-000.7,0036.03,0019.79,0017.46
2021-09-10 16:42:00,,0830.4,5.01,0.00,29.5,28.3,00.0,38.5,31.3,17.7,-000.9,0036.21,0019.79,0017.46
2021-09-10 16:43:00,,0830.4,4.99,0.00,29.5,27.1,00.0,38.5,31.1,17.2,-000.5,0038.17,0019.80,0017.41
2021-09-10 16:44:00,,0830.4,5.01,0.00,29.3,26.1,00.0,38.5,30.7,16.6,-000.3,0039.62,0019.84,0017.36
2021-09-10 16:45:00,,0830.4,5.00,0.00,29.3,26.4,00.0,38.5,30.8,16.7,-000.1,0039.67,0019.80,0017.32
2021-09-10 16:46:00,,0830.4,4.99,0.00,29.3,26.8,00.0,38.4,30.9,16.9,-000.3,0039.40,0019.70,0017.26
2021-09-10 16:47:00,,0830.4,4.99,0.00,29.3,27.2,00.0,38.4,30.9,16.5,-000.2,0038.96,0019.62,0017.23
2021-09-10 16:48:00,,0830.4,5.00,0.00,29.3,27.6,00.0,38.4,31.0,15.5,-000.3,0039.23,0019.55,0017.18
2021-09-10 16:49:00,,0830.4,5.01,0.00,29.3,27.9,00.0,38.4,31.1,15.9,-000.1,0038.82,0019.36,0017.13
2021-09-10 16:50:00,,0830.4,5.00,0.00,29.4,28.2,00.0,38.4,31.2,15.5,0000.1,0038.49,0019.25,0017.09
2021-09-10 16:51:00,,0830.4,4.99,0.00,29.5,28.4,00.0,38.4,31.3,15.2,0000.7,0037.14,0019.23,0017.11
2021-09-10 16:52:00,,0830.4,5.00,0.00,29.5,28.6,00.0,38.4,31.4,15.1,0000.8,0036.91,0019.20,0017.12
2021-09-10 16:53:00,,0830.4,5.01,0.00,29.5,27.6,00.0,38.5,31.2,15.0,0001.0,0035.70,0019.11,0017.13
2021-09-10 16:54:00,,0830.4,5.00,0.00,29.4,26.2,00.0,38.4,30.8,15.4,-000.1,0034.28,0018.99,0017.14
2021-09-10 16:55:00,,0830.3,5.00,0.00,29.3,26.4,00.0,38.4,30.8,15.7,-000.6,0033.11,0018.94,0017.18
2021-09-10 16:56:00,,0830.3,5.01,0.00,29.3,26.8,00.0,38.4,30.9,15.8,-001.2,0032.84,0018.85,0017.22
2021-09-10 16:57:00,,0830.3,5.00,0.00,29.3,27.2,00.0,38.4,31.0,15.7,-001.5,0033.30,0018.84,0017.27
2021-09-10 16:58:00,,0830.3,4.99,0.00,29.3,27.6,00.0,38.4,31.1,15.4,-001.8,0033.28,0018.84,0017.31
2021-09-10 16:59:00,,0830.3,5.00,0.00,29.4,27.9,00.0,38.4,31.2,14.3,-001.8,0033.15,0018.82,0017.34
